Location: Équennes
(49.7375°N, 1.9622°E)
Time: 19:34:56
(UTC+00:00)

Cosmos 1190 Rocket - Visible Passes

Search period start: 24 September 2023 00:00
Search period end: 04 October 2023 00:00
Orbit: 756 x 778 km, 74.1° (Epoch: 24 September)

Date Brightness Start Highest point End Pass type
(mag) Time Alt. Az. Time Alt. Az. Time Alt. Az.
24 Sep 6.5 23:24:17 17° N 23:24:17 17° N 23:25:42 10° N visible
25 Sep 6.5 22:47:28 16° N 22:47:28 16° N 22:48:31 10° NNE visible
26 Sep 6.8 00:27:41 11° NNW 00:27:41 11° NNW 00:28:30 10° NNW visible
26 Sep 6.6 22:10:37 13° NNE 22:10:37 13° NNE 22:11:14 10° NNE visible
26 Sep 6.7 23:50:51 14° NNW 23:50:51 14° NNW 23:52:10 10° N visible
27 Sep 6.7 05:01:30 10° N 05:04:04 14° NE 05:06:38 10° ENE visible
27 Sep 6.6 21:33:45 10° NNE 21:33:45 10° NNE 21:33:50 10° NNE visible
27 Sep 6.7 23:13:59 15° N 23:13:59 15° N 23:15:18 10° N visible
28 Sep 6.6 22:37:06 16° N 22:37:06 16° N 22:38:13 10° N visible
29 Sep 6.5 22:00:11 15° NNE 22:00:11 15° NNE 22:01:03 10° NNE visible
29 Sep 6.9 23:40:24 11° NNW 23:40:24 11° NNW 23:41:11 10° NNW visible
30 Sep 6.6 04:50:46 10° N 04:54:22 18° NE 04:57:59 10° E visible
30 Sep 6.5 21:23:14 13° NNE 21:23:14 13° NNE 21:23:44 10° NNE visible
30 Sep 6.8 23:03:27 14° NNW 23:03:27 14° NNW 23:04:44 10° N visible
01 Oct 6.8 04:14:06 10° NNE 04:16:31 13° NE 04:18:57 10° ENE visible
01 Oct 6.5 20:46:13 11° NNE 20:46:13 11° NNE 20:46:20 10° NNE visible
01 Oct 6.6 22:26:27 16° N 22:26:27 16° N 22:27:51 10° N visible
02 Oct 5.7 05:17:23 10° N 05:22:15 37° ENE 05:27:06 10° SE visible
02 Oct 6.4 21:49:23 17° N 21:49:23 17° N 21:50:46 10° N visible
03 Oct 6.3 04:40:16 10° N 04:44:36 25° NE 04:48:54 10° ESE visible
03 Oct 6.2 21:12:11 18° N 21:12:11 18° N 21:13:33 10° NNE visible
03 Oct 6.9 22:52:23 12° NNW 22:52:23 12° NNW 22:53:51 10° NNW visible
